Location: Aultman
(40.9284°N, 81.4173°W)
Time: 22:12:26
(UTC+00:00)

CZ-2C R/B - Visible Passes

Search period start: 11 May 2021 00:00
Search period end: 21 May 2021 00:00
Orbit: 784 x 871 km, 98.2° (Epoch: 10 May)

Date Brightness Start Highest point End Pass type
(mag) Time Alt. Az. Time Alt. Az. Time Alt. Az.
11 May 5.2 01:29:15 10° NNW 01:33:32 25° WNW 01:37:53 10° WSW visible
12 May 4.6 01:10:14 10° N 01:15:05 35° WNW 01:20:01 10° SW visible
14 May 6.3 02:16:46 10° NW 02:17:24 10° WNW 02:18:02 10° WNW visible
15 May 5.8 01:56:06 10° NNW 01:59:05 15° WNW 02:02:06 10° W visible
16 May 5.5 01:36:42 10° NNW 01:40:43 21° WNW 01:44:47 10° WSW visible
17 May 4.9 01:17:36 10° N 01:22:18 30° WNW 01:27:03 10° SW visible
20 May 5.9 02:03:52 10° NNW 02:06:14 13° WNW 02:08:38 10° W visible
